EW9824 Weather Reports


Display with metric or nautical units.
time (UTC)temp
F
wind
direction
speed
MPH
gust
MPH
rain 1hr
in
rain 24hr
in
rain mn
in
humidity
%
barometer
mb
20260505063107 57 165 3.0 6.0 0.00 0.00 0.00 74 1014.7
20260505061533 59 147 2.0 4.0 0.00 0.00 0.00 69 1014.7
20260505060030 62 192 1.0 10.0 0.00 0.00 0.00 67 1014.8
20260505054531 63 267 6.0 13.0 0.00 0.00 0.00 66 1014.6
20260505053037 63 258 4.0 9.0 0.00 0.00 0.00 66 1014.6
20260505051530 62 236 5.0 13.0 0.00 0.00 0.00 66 1014.6
20260505041541 62 151 2.0 4.0 0.00 0.00 0.00 57 1014.1
20260505040044 64 224 2.0 6.0 0.00 0.00 0.00 53 1013.9
20260505033030 66 247 3.0 9.0 0.00 0.00 0.00 48 1013.4
20260505031528 67 238 4.0 10.0 0.00 0.00 0.00 47 1013.2
20260505030032 68 219 4.0 10.0 0.00 0.00 0.00 46 1013.1
20260505023031 71 230 3.0 9.0 0.00 0.00 0.00 43 1012.9
20260505021605 72 236 3.0 8.0 0.00 0.00 0.00 42 1012.8
20260505020034 73 251 4.0 12.0 0.00 0.00 0.00 41 1012.8
20260505013143 74 242 5.0 12.0 0.00 0.00 0.00 39 1012.6
20260505011530 75 253 6.0 17.0 0.00 0.00 0.00 37 1012.6
20260505010033 77 258 6.0 15.0 0.00 0.00 0.00 35 1012.6
20260505004646 79 245 5.0 11.0 0.00 0.00 0.00 33 1012.6
20260505001644 80 257 6.0 17.0 0.00 0.00 0.00 33 1012.5
20260505000108 80 242 6.0 14.0 0.00 0.00 0.00 32 1012.4
20260504233031 81 268 6.0 16.0 0.00 0.00 0.00 33 1012.3
20260504231530 81 256 6.0 15.0 0.00 0.00 0.00 32 1012.4
20260504230033 82 256 7.0 16.0 0.00 0.00 0.00 33 1012.4
20260504224531 82 268 6.0 13.0 0.00 0.00 0.00 32 1012.5
20260504223033 81 267 6.0 14.0 0.00 0.00 0.00 32 1012.6
20260504221532 82 260 8.0 17.0 0.00 0.00 0.00 31 1012.6
20260504220028 81 266 8.0 16.0 0.00 0.00 0.00 32 1012.6
20260504214530 82 267 7.0 18.0 0.00 0.00 0.00 31 1012.7
20260504213112 82 269 7.0 17.0 0.00 0.00 0.00 31 1012.7
20260504211532 82 268 5.0 14.0 0.00 0.00 0.00 32 1012.8
20260504210032 80 266 7.0 15.0 0.00 0.00 0.00 36 1012.9
20260504204531 80 310 5.0 10.0 0.00 0.00 0.00 38 1013.0
20260504203032 79 349 5.0 11.0 0.00 0.00 0.00 39 1013.1
20260504201529 79 13 5.0 12.0 0.00 0.00 0.00 40 1013.2
20260504200034 79 9 6.0 12.0 0.00 0.00 0.00 40 1013.2
20260504194531 78 9 5.0 12.0 0.00 0.00 0.00 40 1013.2
20260504193032 79 359 6.0 13.0 0.00 0.00 0.00 41 1013.2
20260504191608 78 11 5.0 11.0 0.00 0.00 0.00 42 1013.3
20260504190032 78 7 5.0 9.0 0.00 0.00 0.00 43 1013.4
20260504184531 77 355 4.0 9.0 0.00 0.00 0.00 44 1013.5
20260504181602 76 356 3.0 8.0 0.00 0.00 0.00 44 1013.5
20260504180040 75 2 4.0 6.0 0.00 0.00 0.00 46 1013.5
20260504174531 74 356 4.0 7.0 0.00 0.00 0.00 45 1013.6
20260504173029 73 345 4.0 8.0 0.00 0.00 0.00 46 1013.6
20260504171529 73 352 4.0 7.0 0.00 0.00 0.00 46 1013.6
20260504120144 49 161 2.0 4.0 0.00 0.00 0.00 79 1012.7
20260504081712 0 0 0.0 0.0 0.00 0.00 0.00 100
20260504070112 57 148 4.0 7.0 0.00 0.00 0.00 63 1013.4